Time,TemperatureF,DewpointF,PressureIn,WindDirection,WindDirectionDegrees,WindSpeedMPH,WindSpeedGustMPH,Humidity,HourlyPrecipIn,Conditions,Clouds,dailyrainin,SoftwareType,DateUTC
2013-07-26 00:06:00,53.0,43.5,30.02,SSW,202,2.0,14.0,70,0.00,,,0.00,Weather View 32 v70,2013-07-26 07:06:00,
2013-07-26 00:11:00,53.0,43.5,30.02,SSW,202,5.0,14.0,70,0.00,,,0.00,Weather View 32 v70,2013-07-26 07:11:00,
2013-07-26 00:16:00,53.0,43.5,30.02,SSW,202,0.0,14.0,70,0.00,,,0.00,Weather View 32 v70,2013-07-26 07:16:00,
2013-07-26 00:21:00,53.0,43.5,30.02,SSW,202,3.0,14.0,70,0.00,,,0.00,Weather View 32 v70,2013-07-26 07:21:00,
2013-07-26 00:31:00,53.0,43.5,30.02,SSW,202,0.0,14.0,70,0.00,,,0.00,Weather View 32 v70,2013-07-26 07:31:00,
2013-07-26 00:36:00,53.0,43.5,30.02,SSW,202,0.0,11.0,70,0.00,,,0.00,Weather View 32 v70,2013-07-26 07:36:00,
2013-07-26 00:41:00,53.0,43.5,30.02,SSW,202,0.0,11.0,70,0.00,,,0.00,Weather View 32 v70,2013-07-26 07:41:00,
2013-07-26 00:46:00,53.0,43.5,30.02,SSW,202,2.0,11.0,70,0.00,,,0.00,Weather View 32 v70,2013-07-26 07:46:00,
2013-07-26 00:51:00,53.0,43.5,30.02,SSW,202,2.0,11.0,70,0.00,,,0.00,Weather View 32 v70,2013-07-26 07:51:00,
2013-07-26 00:56:00,53.0,43.5,30.02,SSW,202,0.0,12.0,70,0.00,,,0.00,Weather View 32 v70,2013-07-26 07:56:00,
2013-07-26 01:07:00,53.0,43.5,30.02,SSW,202,3.0,12.0,70,0.00,,,0.00,Weather View 32 v70,2013-07-26 08:07:00,
2013-07-26 01:11:00,53.0,43.5,30.02,SSW,202,7.0,12.0,70,0.00,,,0.00,Weather View 32 v70,2013-07-26 08:11:00,
2013-07-26 01:16:00,53.0,43.5,30.02,SSW,202,0.0,12.0,70,0.00,,,0.00,Weather View 32 v70,2013-07-26 08:16:00,
2013-07-26 01:21:00,53.0,43.5,30.02,SSW,202,2.0,12.0,70,0.00,,,0.00,Weather View 32 v70,2013-07-26 08:21:00,
2013-07-26 01:26:00,53.0,43.1,30.02,SSW,202,4.0,12.0,69,0.00,,,0.00,Weather View 32 v70,2013-07-26 08:26:00,
2013-07-26 01:31:00,53.0,43.1,30.02,SSW,202,6.0,12.0,69,0.00,,,0.00,Weather View 32 v70,2013-07-26 08:31:00,
2013-07-26 01:41:00,53.0,43.5,30.02,SSW,202,3.0,12.0,70,0.00,,,0.00,Weather View 32 v70,2013-07-26 08:41:00,
2013-07-26 01:51:00,53.0,43.5,30.02,SSW,202,8.0,16.0,70,0.00,,,0.00,Weather View 32 v70,2013-07-26 08:51:00,
2013-07-26 02:01:00,53.0,43.5,30.02,SSW,202,0.0,16.0,70,0.00,,,0.00,Weather View 32 v70,2013-07-26 09:01:00,
2013-07-26 02:06:00,53.0,43.5,30.02,SSW,202,0.0,16.0,70,0.00,,,0.00,Weather View 32 v70,2013-07-26 09:06:00,
2013-07-26 02:07:00,53.0,43.5,30.02,SSW,202,0.0,16.0,70,0.00,,,0.00,Weather View 32 v70,2013-07-26 09:07:00,
2013-07-26 02:11:00,53.0,43.5,30.02,SSW,202,8.0,16.0,70,0.00,,,0.00,Weather View 32 v70,2013-07-26 09:11:00,
2013-07-26 02:16:00,53.0,43.5,30.02,SSW,202,6.0,16.0,70,0.00,,,0.00,Weather View 32 v70,2013-07-26 09:16:00,
2013-07-26 02:21:00,53.0,43.5,30.02,SSW,202,7.0,16.0,70,0.00,,,0.00,Weather View 32 v70,2013-07-26 09:21:00,
2013-07-26 02:26:00,53.0,43.5,30.02,SSW,202,4.0,16.0,70,0.00,,,0.00,Weather View 32 v70,2013-07-26 09:26:00,
2013-07-26 02:36:00,53.0,43.5,30.02,SSW,202,1.0,16.0,70,0.00,,,0.00,Weather View 32 v70,2013-07-26 09:36:00,
2013-07-26 02:41:00,53.0,43.5,30.02,SSW,202,6.0,16.0,70,0.00,,,0.00,Weather View 32 v70,2013-07-26 09:41:00,
2013-07-26 02:46:00,53.0,43.5,30.02,SSW,202,0.0,16.0,70,0.00,,,0.00,Weather View 32 v70,2013-07-26 09:46:00,
2013-07-26 02:51:00,53.0,43.5,30.02,SSW,202,1.0,11.0,70,0.00,,,0.00,Weather View 32 v70,2013-07-26 09:51:00,
2013-07-26 02:56:00,53.0,43.5,30.02,SSW,202,2.0,11.0,70,0.00,,,0.00,Weather View 32 v70,2013-07-26 09:56:00,
2013-07-26 03:01:00,53.0,43.5,30.02,SSW,202,6.0,11.0,70,0.00,,,0.00,Weather View 32 v70,2013-07-26 10:01:00,
2013-07-26 03:05:00,53.0,43.5,30.02,SSW,202,4.0,11.0,70,0.00,,,0.00,Weather View 32 v70,2013-07-26 10:05:00,
2013-07-26 03:07:00,53.0,43.5,30.02,SSW,202,4.0,11.0,70,0.00,,,0.00,Weather View 32 v70,2013-07-26 10:07:00,
2013-07-26 03:10:00,53.0,43.5,30.02,SSW,202,0.0,11.0,70,0.00,,,0.00,Weather View 32 v70,2013-07-26 10:10:00,
2013-07-26 03:16:00,53.0,43.5,30.02,SSW,202,6.0,11.0,70,0.00,,,0.00,Weather View 32 v70,2013-07-26 10:16:00,
2013-07-26 03:21:00,53.0,43.5,30.02,SSW,202,0.0,11.0,70,0.00,,,0.00,Weather View 32 v70,2013-07-26 10:21:00,
2013-07-26 03:26:00,53.0,43.5,30.02,SSW,202,0.0,11.0,70,0.00,,,0.00,Weather View 32 v70,2013-07-26 10:26:00,
2013-07-26 03:30:00,53.0,43.5,30.02,SSW,202,0.0,11.0,70,0.00,,,0.00,Weather View 32 v70,2013-07-26 10:30:00,
2013-07-26 03:35:00,54.0,44.0,30.02,SSW,202,4.0,11.0,69,0.00,,,0.00,Weather View 32 v70,2013-07-26 10:35:00,
2013-07-26 03:40:00,53.0,43.1,30.02,SSW,202,3.0,14.0,69,0.00,,,0.00,Weather View 32 v70,2013-07-26 10:40:00,
2013-07-26 03:45:00,53.0,43.1,30.02,SSW,202,5.0,14.0,69,0.00,,,0.00,Weather View 32 v70,2013-07-26 10:45:00,
2013-07-26 03:50:00,53.0,43.5,30.03,SSW,202,1.0,14.0,70,0.00,,,0.00,Weather View 32 v70,2013-07-26 10:50:00,
2013-07-26 03:55:00,53.0,43.5,30.03,SSW,202,5.0,14.0,70,0.00,,,0.00,Weather View 32 v70,2013-07-26 10:55:00,
2013-07-26 04:01:00,53.0,43.5,30.03,SSW,202,0.0,14.0,70,0.00,,,0.00,Weather View 32 v70,2013-07-26 11:01:00,
2013-07-26 04:06:00,53.0,43.5,30.03,SSW,202,6.0,14.0,70,0.00,,,0.00,Weather View 32 v70,2013-07-26 11:06:00,
2013-07-26 04:09:00,53.0,43.5,30.03,SSW,202,6.0,14.0,70,0.00,,,0.00,Weather View 32 v70,2013-07-26 11:09:00,
2013-07-26 04:11:00,53.0,43.5,30.03,SSW,202,6.0,14.0,70,0.00,,,0.00,Weather View 32 v70,2013-07-26 11:11:00,
2013-07-26 04:16:00,53.0,43.5,30.03,SSW,202,0.0,14.0,70,0.00,,,0.00,Weather View 32 v70,2013-07-26 11:16:00,
2013-07-26 04:21:00,53.0,43.5,30.03,SSW,202,4.0,14.0,70,0.00,,,0.00,Weather View 32 v70,2013-07-26 11:21:00,
2013-07-26 04:26:00,53.0,43.5,30.03,SSW,202,0.0,14.0,70,0.00,,,0.00,Weather View 32 v70,2013-07-26 11:26:00,
2013-07-26 04:31:00,53.0,43.5,30.03,SSW,202,0.0,14.0,70,0.00,,,0.00,Weather View 32 v70,2013-07-26 11:31:00,
2013-07-26 04:36:00,53.0,43.5,30.03,SSW,202,0.0,14.0,70,0.00,,,0.00,Weather View 32 v70,2013-07-26 11:36:00,
2013-07-26 04:41:00,53.0,43.5,30.03,SSW,202,0.0,10.0,70,0.00,,,0.00,Weather View 32 v70,2013-07-26 11:41:00,
2013-07-26 04:46:00,53.0,43.5,30.03,SSW,202,1.0,10.0,70,0.00,,,0.00,Weather View 32 v70,2013-07-26 11:46:00,
2013-07-26 04:51:00,53.0,43.5,30.03,SSW,202,8.0,13.0,70,0.00,,,0.00,Weather View 32 v70,2013-07-26 11:51:00,
2013-07-26 04:56:00,53.0,43.5,30.03,SSW,202,6.0,13.0,70,0.00,,,0.00,Weather View 32 v70,2013-07-26 11:56:00,
2013-07-26 05:01:00,53.0,43.5,30.03,SSW,202,4.0,13.0,70,0.00,,,0.00,Weather View 32 v70,2013-07-26 12:01:00,
2013-07-26 05:06:00,53.0,43.5,30.03,SSW,202,4.0,13.0,70,0.00,,,0.00,Weather View 32 v70,2013-07-26 12:06:00,
2013-07-26 05:09:00,53.0,43.5,30.03,SSW,202,4.0,13.0,70,0.00,,,0.00,Weather View 32 v70,2013-07-26 12:09:00,
2013-07-26 05:11:00,53.0,43.5,30.03,SSW,202,1.0,13.0,70,0.00,,,0.00,Weather View 32 v70,2013-07-26 12:11:00,
2013-07-26 05:16:00,53.0,43.5,30.03,SSW,202,3.0,13.0,70,0.00,,,0.00,Weather View 32 v70,2013-07-26 12:16:00,
2013-07-26 05:21:00,53.0,43.5,30.03,SSW,202,0.0,13.0,70,0.00,,,0.00,Weather View 32 v70,2013-07-26 12:21:00,
2013-07-26 05:26:00,53.0,43.5,30.03,SSW,202,6.0,13.0,70,0.00,,,0.00,Weather View 32 v70,2013-07-26 12:26:00,
2013-07-26 05:31:00,53.0,43.5,30.03,SSW,202,0.0,13.0,70,0.00,,,0.00,Weather View 32 v70,2013-07-26 12:31:00,
2013-07-26 05:36:00,53.0,43.5,30.03,SSW,202,1.0,13.0,70,0.00,,,0.00,Weather View 32 v70,2013-07-26 12:36:00,
2013-07-26 05:41:00,53.0,43.5,30.04,SSW,202,0.0,13.0,70,0.00,,,0.00,Weather View 32 v70,2013-07-26 12:41:00,
2013-07-26 05:51:00,53.0,42.7,30.03,SSW,202,2.0,12.0,68,0.00,,,0.00,Weather View 32 v70,2013-07-26 12:51:00,
2013-07-26 06:01:00,53.0,42.3,30.04,SSW,202,1.0,15.0,67,0.00,,,0.00,Weather View 32 v70,2013-07-26 13:01:00,
2013-07-26 06:06:00,53.0,42.3,30.05,SSW,202,3.0,15.0,67,0.00,,,0.00,Weather View 32 v70,2013-07-26 13:06:00,
2013-07-26 06:09:00,53.0,42.3,30.05,SSW,202,3.0,15.0,67,0.00,,,0.00,Weather View 32 v70,2013-07-26 13:09:00,
2013-07-26 06:11:00,53.0,41.9,30.04,SSW,202,5.0,15.0,66,0.00,,,0.00,Weather View 32 v70,2013-07-26 13:11:00,
2013-07-26 06:21:00,54.0,42.9,30.04,SSW,202,0.0,15.0,66,0.00,,,0.00,Weather View 32 v70,2013-07-26 13:21:00,
2013-07-26 06:26:00,54.0,42.5,30.04,SSW,202,6.0,15.0,65,0.00,,,0.00,Weather View 32 v70,2013-07-26 13:26:00,
2013-07-26 06:31:00,54.0,42.5,30.05,SSW,202,2.0,15.0,65,0.00,,,0.00,Weather View 32 v70,2013-07-26 13:31:00,
2013-07-26 06:36:00,54.0,42.5,30.05,SSW,202,6.0,15.0,65,0.00,,,0.00,Weather View 32 v70,2013-07-26 13:36:00,
2013-07-26 06:51:00,54.0,34.7,30.05,SSW,202,0.0,15.0,48,0.00,,,0.00,Weather View 32 v70,2013-07-26 13:51:00,
2013-07-26 06:56:00,54.0,41.7,30.05,SSW,202,0.0,13.0,63,0.00,,,0.00,Weather View 32 v70,2013-07-26 13:56:00,
2013-07-26 07:06:00,54.0,41.7,30.05,SSW,202,2.0,13.0,63,0.00,,,0.00,Weather View 32 v70,2013-07-26 14:06:00,
2013-07-26 07:10:00,54.0,41.7,30.05,SSW,202,2.0,13.0,63,0.00,,,0.00,Weather View 32 v70,2013-07-26 14:10:00,
2013-07-26 07:11:00,54.0,41.2,30.05,SSW,202,0.0,13.0,62,0.00,,,0.00,Weather View 32 v70,2013-07-26 14:11:00,
2013-07-26 07:16:00,54.0,41.2,30.05,SSW,202,5.0,13.0,62,0.00,,,0.00,Weather View 32 v70,2013-07-26 14:16:00,
2013-07-26 07:21:00,54.0,41.2,30.05,SSW,202,4.0,13.0,62,0.00,,,0.00,Weather View 32 v70,2013-07-26 14:21:00,
2013-07-26 07:26:00,54.0,8.7,30.06,SSW,202,5.0,13.0,16,0.00,,,0.00,Weather View 32 v70,2013-07-26 14:26:00,
2013-07-26 07:31:00,54.0,41.2,30.06,SSW,202,0.0,12.0,62,0.00,,,0.00,Weather View 32 v70,2013-07-26 14:31:00,
2013-07-26 07:36:00,54.0,41.2,30.06,SSW,202,5.0,12.0,62,0.00,,,0.00,Weather View 32 v70,2013-07-26 14:36:00,
2013-07-26 07:41:00,54.0,41.2,30.06,SSW,202,0.0,12.0,62,0.00,,,0.00,Weather View 32 v70,2013-07-26 14:41:00,
2013-07-26 07:46:00,54.0,41.2,30.06,SSW,202,0.0,12.0,62,0.00,,,0.00,Weather View 32 v70,2013-07-26 14:46:00,
2013-07-26 07:51:00,54.0,41.2,30.06,SSW,202,5.0,12.0,62,0.00,,,0.00,Weather View 32 v70,2013-07-26 14:51:00,
2013-07-26 07:56:00,54.0,40.8,30.06,SSW,202,5.0,12.0,61,0.00,,,0.00,Weather View 32 v70,2013-07-26 14:56:00,
2013-07-26 08:01:00,54.0,-19.9,30.06,SSW,202,4.0,12.0,4,0.00,,,0.00,Weather View 32 v70,2013-07-26 15:01:00,
2013-07-26 08:06:00,54.0,41.2,30.06,SSW,202,10.0,12.0,62,0.00,,,0.00,Weather View 32 v70,2013-07-26 15:06:00,
2013-07-26 08:10:00,54.0,41.2,30.06,SSW,202,10.0,12.0,62,0.00,,,0.00,Weather View 32 v70,2013-07-26 15:10:00,
2013-07-26 08:11:00,54.0,40.8,30.07,SSW,202,0.0,12.0,61,0.00,,,0.00,Weather View 32 v70,2013-07-26 15:11:00,
2013-07-26 08:16:00,54.0,40.4,30.07,SSW,202,7.0,12.0,60,0.00,,,0.00,Weather View 32 v70,2013-07-26 15:16:00,
2013-07-26 08:21:00,55.0,41.3,30.07,SSW,202,3.0,12.0,60,0.00,,,0.00,Weather View 32 v70,2013-07-26 15:21:00,
2013-07-26 08:26:00,55.0,41.3,30.06,SSW,202,6.0,12.0,60,0.00,,,0.00,Weather View 32 v70,2013-07-26 15:26:00,
2013-07-26 08:31:00,55.0,41.3,30.06,SSW,202,0.0,10.0,60,0.00,,,0.00,Weather View 32 v70,2013-07-26 15:31:00,
2013-07-26 08:36:00,55.0,-44.1,30.06,SSW,202,0.0,10.0,1,0.00,,,0.00,Weather View 32 v70,2013-07-26 15:36:00,
2013-07-26 08:40:00,55.0,41.3,30.06,SSW,202,6.0,10.0,60,0.00,,,0.00,Weather View 32 v70,2013-07-26 15:40:00,
2013-07-26 08:45:00,55.0,41.3,30.07,SSW,202,1.0,10.0,60,0.00,,,0.00,Weather View 32 v70,2013-07-26 15:45:00,
2013-07-26 08:50:00,55.0,41.3,30.07,SSW,202,8.0,11.0,60,0.00,,,0.00,Weather View 32 v70,2013-07-26 15:50:00,
2013-07-26 08:55:00,55.0,41.3,30.07,SSW,202,0.0,11.0,60,0.00,,,0.00,Weather View 32 v70,2013-07-26 15:55:00,
2013-07-26 09:06:00,55.0,40.9,30.07,SSW,202,2.0,11.0,59,0.00,,,0.00,Weather View 32 v70,2013-07-26 16:06:00,
2013-07-26 09:11:00,55.0,40.9,30.07,SSW,202,6.0,11.0,59,0.00,,,0.00,Weather View 32 v70,2013-07-26 16:11:00,
2013-07-26 09:16:00,55.0,40.5,30.07,SSW,202,4.0,11.0,58,0.00,,,0.00,Weather View 32 v70,2013-07-26 16:16:00,
2013-07-26 09:21:00,55.0,40.0,30.07,SSW,202,7.0,11.0,57,0.00,,,0.00,Weather View 32 v70,2013-07-26 16:21:00,
2013-07-26 09:26:00,55.0,40.0,30.07,SSW,202,0.0,11.0,57,0.00,,,0.00,Weather View 32 v70,2013-07-26 16:26:00,
2013-07-26 09:31:00,56.0,40.9,30.07,SSW,202,6.0,11.0,57,0.00,,,0.00,Weather View 32 v70,2013-07-26 16:31:00,
2013-07-26 09:36:00,56.0,40.5,30.07,SSW,202,5.0,11.0,56,0.00,,,0.00,Weather View 32 v70,2013-07-26 16:36:00,
2013-07-26 09:41:00,56.0,40.5,30.07,SSW,202,5.0,11.0,56,0.00,,,0.00,Weather View 32 v70,2013-07-26 16:41:00,
2013-07-26 09:51:00,57.0,41.4,30.07,SSW,202,4.0,11.0,56,0.00,,,0.00,Weather View 32 v70,2013-07-26 16:51:00,
2013-07-26 10:01:00,57.0,41.4,30.06,SSW,202,3.0,11.0,56,0.00,,,0.00,Weather View 32 v70,2013-07-26 17:01:00,
2013-07-26 10:06:00,57.0,41.4,30.06,SSW,202,0.0,11.0,56,0.00,,,0.00,Weather View 32 v70,2013-07-26 17:06:00,
2013-07-26 10:11:00,58.0,41.9,30.05,SSW,202,7.0,11.0,55,0.00,,,0.00,Weather View 32 v70,2013-07-26 17:11:00,
2013-07-26 10:21:00,58.0,-42.3,30.06,SSW,202,3.0,12.0,1,0.00,,,0.00,Weather View 32 v70,2013-07-26 17:21:00,
2013-07-26 10:26:00,58.0,40.9,30.06,SSW,202,2.0,12.0,53,0.00,,,0.00,Weather View 32 v70,2013-07-26 17:26:00,
2013-07-26 10:31:00,58.0,40.9,30.06,SSW,202,1.0,12.0,53,0.00,,,0.00,Weather View 32 v70,2013-07-26 17:31:00,
2013-07-26 10:35:00,59.0,41.4,30.06,SSW,202,2.0,14.0,52,0.00,,,0.00,Weather View 32 v70,2013-07-26 17:35:00,
2013-07-26 10:40:00,59.0,41.4,30.06,SSW,202,6.0,14.0,52,0.00,,,0.00,Weather View 32 v70,2013-07-26 17:40:00,
2013-07-26 10:50:00,59.0,41.4,30.06,SSW,202,6.0,14.0,52,0.00,,,0.00,Weather View 32 v70,2013-07-26 17:50:00,
2013-07-26 10:55:00,60.0,-41.1,30.05,SSW,202,9.0,14.0,1,0.00,,,0.00,Weather View 32 v70,2013-07-26 17:55:00,
2013-07-26 11:01:00,60.0,41.8,30.05,SSW,202,5.0,14.0,51,0.00,,,0.00,Weather View 32 v70,2013-07-26 18:01:00,
2013-07-26 11:06:00,61.0,41.7,30.05,SSW,202,0.0,14.0,49,0.00,,,0.00,Weather View 32 v70,2013-07-26 18:06:00,
2013-07-26 11:11:00,61.0,42.2,30.05,SSW,202,7.0,14.0,50,0.00,,,0.00,Weather View 32 v70,2013-07-26 18:11:00,
2013-07-26 11:13:00,61.0,42.2,30.05,SSW,202,7.0,14.0,50,0.00,,,0.00,Weather View 32 v70,2013-07-26 18:13:00,
2013-07-26 11:21:00,61.0,42.2,30.05,SSW,202,9.0,14.0,50,0.00,,,0.00,Weather View 32 v70,2013-07-26 18:21:00,
2013-07-26 11:26:00,61.0,42.2,30.05,SSW,202,0.0,14.0,50,0.00,,,0.00,Weather View 32 v70,2013-07-26 18:26:00,
2013-07-26 11:31:00,61.0,42.2,30.05,SSW,202,7.0,14.0,50,0.00,,,0.00,Weather View 32 v70,2013-07-26 18:31:00,
2013-07-26 11:36:00,62.0,40.4,30.05,SSW,202,7.0,14.0,45,0.00,,,0.00,Weather View 32 v70,2013-07-26 18:36:00,
2013-07-26 11:46:00,62.0,43.6,30.05,SSW,202,6.0,14.0,51,0.00,,,0.00,Weather View 32 v70,2013-07-26 18:46:00,
2013-07-26 11:51:00,63.0,-39.3,30.03,SSW,202,6.0,14.0,1,0.00,,,0.00,Weather View 32 v70,2013-07-26 18:51:00,
2013-07-26 11:56:00,63.0,42.4,30.03,SSW,202,6.0,16.0,47,0.00,,,0.00,Weather View 32 v70,2013-07-26 18:56:00,
2013-07-26 12:01:00,62.0,40.4,30.03,SSW,202,2.0,16.0,45,0.00,,,0.00,Weather View 32 v70,2013-07-26 19:01:00,
2013-07-26 12:06:00,62.0,42.6,30.03,SSW,202,0.0,16.0,49,0.00,,,0.00,Weather View 32 v70,2013-07-26 19:06:00,
2013-07-26 12:11:00,64.0,42.8,30.03,SSW,202,5.0,16.0,46,0.00,,,0.00,Weather View 32 v70,2013-07-26 19:11:00,
2013-07-26 12:13:00,64.0,42.8,30.03,SSW,202,5.0,16.0,46,0.00,,,0.00,Weather View 32 v70,2013-07-26 19:13:00,
2013-07-26 12:21:00,64.0,44.9,30.03,SSW,202,7.0,16.0,50,0.00,,,0.00,Weather View 32 v70,2013-07-26 19:21:00,
2013-07-26 12:26:00,62.0,42.0,30.03,SSW,202,9.0,16.0,48,0.00,,,0.00,Weather View 32 v70,2013-07-26 19:26:00,
2013-07-26 12:31:00,62.0,42.6,30.03,SSW,202,3.0,16.0,49,0.00,,,0.00,Weather View 32 v70,2013-07-26 19:31:00,
2013-07-26 12:41:00,63.0,-39.3,30.03,SSW,202,9.0,16.0,1,0.00,,,0.00,Weather View 32 v70,2013-07-26 19:41:00,
2013-07-26 12:46:00,62.0,42.0,30.03,SSW,202,0.0,16.0,48,0.00,,,0.00,Weather View 32 v70,2013-07-26 19:46:00,
2013-07-26 13:06:00,63.0,43.5,30.03,SSW,202,6.0,16.0,49,0.00,,,0.00,Weather View 32 v70,2013-07-26 20:06:00,
2013-07-26 13:13:00,63.0,43.0,30.02,SSW,202,9.0,16.0,48,0.00,,,0.00,Weather View 32 v70,2013-07-26 20:13:00,
2013-07-26 13:16:00,63.0,-39.3,30.02,SSW,202,9.0,16.0,1,0.00,,,0.00,Weather View 32 v70,2013-07-26 20:16:00,
2013-07-26 13:21:00,63.0,44.5,30.02,SSW,202,6.0,15.0,51,0.00,,,0.00,Weather View 32 v70,2013-07-26 20:21:00,
2013-07-26 13:26:00,63.0,45.1,30.02,SSW,202,6.0,16.0,52,0.00,,,0.00,Weather View 32 v70,2013-07-26 20:26:00,
2013-07-26 13:31:00,63.0,46.1,30.02,SSW,202,0.0,19.0,54,0.00,,,0.00,Weather View 32 v70,2013-07-26 20:31:00,
2013-07-26 13:41:00,62.0,44.1,30.03,SSW,202,0.0,19.0,52,0.00,,,0.00,Weather View 32 v70,2013-07-26 20:41:00,
2013-07-26 13:46:00,62.0,44.1,30.03,SSW,202,6.0,19.0,52,0.00,,,0.00,Weather View 32 v70,2013-07-26 20:46:00,
2013-07-26 13:51:00,62.0,-39.9,30.02,SSW,202,0.0,19.0,1,0.00,,,0.00,Weather View 32 v70,2013-07-26 20:51:00,
2013-07-26 13:56:00,63.0,45.1,30.02,SSW,202,3.0,19.0,52,0.00,,,0.00,Weather View 32 v70,2013-07-26 20:56:00,
2013-07-26 14:01:00,62.0,43.6,30.01,SSW,202,6.0,19.0,51,0.00,,,0.00,Weather View 32 v70,2013-07-26 21:01:00,
2013-07-26 14:06:00,62.0,44.1,30.02,SSW,202,7.0,19.0,52,0.00,,,0.00,Weather View 32 v70,2013-07-26 21:06:00,
2013-07-26 14:11:00,62.0,44.1,30.02,SSW,202,10.0,19.0,52,0.00,,,0.00,Weather View 32 v70,2013-07-26 21:11:00,
2013-07-26 14:13:00,62.0,44.1,30.02,SSW,202,10.0,19.0,52,0.00,,,0.00,Weather View 32 v70,2013-07-26 21:13:00,
2013-07-26 14:16:00,61.0,42.7,30.02,SSW,202,2.0,19.0,51,0.00,,,0.00,Weather View 32 v70,2013-07-26 21:16:00,
2013-07-26 14:21:00,61.0,42.2,30.02,SSW,202,1.0,19.0,50,0.00,,,0.00,Weather View 32 v70,2013-07-26 21:21:00,
2013-07-26 14:26:00,62.0,-39.9,30.02,SSW,202,5.0,19.0,1,0.00,,,0.00,Weather View 32 v70,2013-07-26 21:26:00,
2013-07-26 14:30:00,62.0,44.1,30.02,SSW,202,10.0,17.0,52,0.00,,,0.00,Weather View 32 v70,2013-07-26 21:30:00,
2013-07-26 14:35:00,62.0,43.6,30.01,SSW,202,10.0,20.0,51,0.00,,,0.00,Weather View 32 v70,2013-07-26 21:35:00,
2013-07-26 14:40:00,61.0,42.2,30.02,SSW,202,4.0,20.0,50,0.00,,,0.00,Weather View 32 v70,2013-07-26 21:40:00,
2013-07-26 14:45:00,62.0,43.1,30.02,SSW,202,11.0,20.0,50,0.00,,,0.00,Weather View 32 v70,2013-07-26 21:45:00,
2013-07-26 14:50:00,62.0,43.1,30.01,SSW,202,0.0,20.0,50,0.00,,,0.00,Weather View 32 v70,2013-07-26 21:50:00,
2013-07-26 14:55:00,62.0,43.1,30.01,SSW,202,8.0,20.0,50,0.00,,,0.00,Weather View 32 v70,2013-07-26 21:55:00,
2013-07-26 15:01:00,61.0,42.7,30.01,SSW,202,12.0,21.0,51,0.00,,,0.00,Weather View 32 v70,2013-07-26 22:01:00,
2013-07-26 15:06:00,61.0,42.2,30.01,SSW,202,4.0,21.0,50,0.00,,,0.00,Weather View 32 v70,2013-07-26 22:06:00,
2013-07-26 15:11:00,61.0,42.2,30.02,SSW,202,3.0,21.0,50,0.00,,,0.00,Weather View 32 v70,2013-07-26 22:11:00,
2013-07-26 15:15:00,61.0,42.2,30.02,SSW,202,3.0,21.0,50,0.00,,,0.00,Weather View 32 v70,2013-07-26 22:15:00,
2013-07-26 15:21:00,62.0,-39.9,30.01,SSW,202,0.0,21.0,1,0.00,,,0.00,Weather View 32 v70,2013-07-26 22:21:00,
2013-07-26 15:27:00,63.0,43.0,30.01,SSW,202,9.0,21.0,48,0.00,,,0.00,Weather View 32 v70,2013-07-26 22:27:00,
2013-07-26 15:31:00,63.0,43.0,30.00,SSW,202,0.0,21.0,48,0.00,,,0.00,Weather View 32 v70,2013-07-26 22:31:00,
2013-07-26 15:36:00,63.0,42.4,30.00,SSW,202,0.0,21.0,47,0.00,,,0.00,Weather View 32 v70,2013-07-26 22:36:00,
2013-07-26 15:41:00,64.0,43.3,30.00,SSW,202,16.0,21.0,47,0.00,,,0.00,Weather View 32 v70,2013-07-26 22:41:00,
2013-07-26 15:46:00,63.0,43.5,29.99,SSW,202,2.0,21.0,49,0.00,,,0.00,Weather View 32 v70,2013-07-26 22:46:00,
2013-07-26 15:51:00,64.0,42.2,30.00,SSW,202,0.0,21.0,45,0.00,,,0.00,Weather View 32 v70,2013-07-26 22:51:00,
2013-07-26 15:56:00,64.0,-38.7,30.00,SSW,202,2.0,21.0,1,0.00,,,0.00,Weather View 32 v70,2013-07-26 22:56:00,
2013-07-26 16:01:00,62.0,43.1,30.00,SSW,202,0.0,17.0,50,0.00,,,0.00,Weather View 32 v70,2013-07-26 23:01:00,
2013-07-26 16:06:00,63.0,44.5,30.01,SSW,202,10.0,17.0,51,0.00,,,0.00,Weather View 32 v70,2013-07-26 23:06:00,
2013-07-26 16:11:00,62.0,43.6,30.01,SSW,202,9.0,17.0,51,0.00,,,0.00,Weather View 32 v70,2013-07-26 23:11:00,
2013-07-26 16:16:00,61.0,42.2,30.01,SSW,202,6.0,17.0,50,0.00,,,0.00,Weather View 32 v70,2013-07-26 23:16:00,
2013-07-26 16:21:00,62.0,43.6,30.00,SSW,202,5.0,17.0,51,0.00,,,0.00,Weather View 32 v70,2013-07-26 23:21:00,
2013-07-26 16:31:00,62.0,-39.9,30.00,SSW,202,6.0,20.0,1,0.00,,,0.00,Weather View 32 v70,2013-07-26 23:31:00,
2013-07-26 16:36:00,62.0,43.6,30.00,SSW,202,6.0,20.0,51,0.00,,,0.00,Weather View 32 v70,2013-07-26 23:36:00,
2013-07-26 16:41:00,62.0,43.1,30.00,SSW,202,3.0,20.0,50,0.00,,,0.00,Weather View 32 v70,2013-07-26 23:41:00,
2013-07-26 16:46:00,61.0,42.2,30.00,SSW,202,1.0,20.0,50,0.00,,,0.00,Weather View 32 v70,2013-07-26 23:46:00,
2013-07-26 16:51:00,61.0,42.7,30.00,SSW,202,7.0,20.0,51,0.00,,,0.00,Weather View 32 v70,2013-07-26 23:51:00,
2013-07-26 16:56:00,61.0,43.2,30.00,SSW,202,0.0,20.0,52,0.00,,,0.00,Weather View 32 v70,2013-07-26 23:56:00,
2013-07-26 17:01:00,61.0,43.2,30.00,SSW,202,10.0,20.0,52,0.00,,,0.00,Weather View 32 v70,2013-07-27 00:01:00,
2013-07-26 17:06:00,61.0,-40.5,30.01,SSW,202,9.0,20.0,1,0.00,,,0.00,Weather View 32 v70,2013-07-27 00:06:00,
2013-07-26 17:11:00,61.0,44.2,30.01,SSW,202,4.0,20.0,54,0.00,,,0.00,Weather View 32 v70,2013-07-27 00:11:00,
2013-07-26 17:16:00,61.0,44.2,30.01,SSW,202,4.0,20.0,54,0.00,,,0.00,Weather View 32 v70,2013-07-27 00:16:00,
2013-07-26 17:21:00,60.0,-41.1,30.01,SSW,202,15.0,20.0,1,0.00,,,0.00,Weather View 32 v70,2013-07-27 00:21:00,
2013-07-26 17:26:00,60.0,43.3,30.01,SSW,202,13.0,20.0,54,0.00,,,0.00,Weather View 32 v70,2013-07-27 00:26:00,
2013-07-26 17:31:00,60.0,43.7,30.00,SSW,202,0.0,20.0,55,0.00,,,0.00,Weather View 32 v70,2013-07-27 00:31:00,
2013-07-26 17:41:00,60.0,43.7,30.00,SSW,202,7.0,20.0,55,0.00,,,0.00,Weather View 32 v70,2013-07-27 00:41:00,
2013-07-26 17:46:00,60.0,43.7,30.00,SSW,202,1.0,20.0,55,0.00,,,0.00,Weather View 32 v70,2013-07-27 00:46:00,
2013-07-26 17:51:00,60.0,44.2,30.00,SSW,202,4.0,20.0,56,0.00,,,0.00,Weather View 32 v70,2013-07-27 00:51:00,
2013-07-26 17:56:00,59.0,-41.7,30.01,SSW,202,9.0,20.0,1,0.00,,,0.00,Weather View 32 v70,2013-07-27 00:56:00,
2013-07-26 18:01:00,59.0,43.3,30.01,SSW,202,6.0,20.0,56,0.00,,,0.00,Weather View 32 v70,2013-07-27 01:01:00,
2013-07-26 18:11:00,59.0,43.8,30.00,SSW,202,0.0,20.0,57,0.00,,,0.00,Weather View 32 v70,2013-07-27 01:11:00,
2013-07-26 18:16:00,59.0,44.2,30.00,SSW,202,4.0,20.0,58,0.00,,,0.00,Weather View 32 v70,2013-07-27 01:16:00,
2013-07-26 18:26:00,59.0,44.2,30.00,SSW,202,0.0,20.0,58,0.00,,,0.00,Weather View 32 v70,2013-07-27 01:26:00,
2013-07-26 18:31:00,58.0,-42.3,30.00,SSW,202,10.0,20.0,1,0.00,,,0.00,Weather View 32 v70,2013-07-27 01:31:00,
2013-07-26 18:36:00,58.0,43.7,30.00,SSW,202,10.0,20.0,59,0.00,,,0.00,Weather View 32 v70,2013-07-27 01:36:00,
2013-07-26 18:41:00,58.0,43.7,30.00,SSW,202,2.0,20.0,59,0.00,,,0.00,Weather View 32 v70,2013-07-27 01:41:00,
2013-07-26 18:46:00,58.0,43.7,30.00,SSW,202,0.0,20.0,59,0.00,,,0.00,Weather View 32 v70,2013-07-27 01:46:00,
2013-07-26 18:51:00,58.0,43.7,30.00,SSW,202,10.0,20.0,59,0.00,,,0.00,Weather View 32 v70,2013-07-27 01:51:00,
2013-07-26 18:56:00,58.0,43.7,30.00,SSW,202,7.0,20.0,59,0.00,,,0.00,Weather View 32 v70,2013-07-27 01:56:00,
2013-07-26 19:06:00,58.0,-42.3,29.99,SSW,202,0.0,20.0,1,0.00,,,0.00,Weather View 32 v70,2013-07-27 02:06:00,
2013-07-26 19:10:00,57.0,42.8,29.99,SSW,202,3.0,20.0,59,0.00,,,0.00,Weather View 32 v70,2013-07-27 02:10:00,
2013-07-26 19:16:00,57.0,42.8,30.00,SSW,202,0.0,20.0,59,0.00,,,0.00,Weather View 32 v70,2013-07-27 02:16:00,
2013-07-26 19:25:00,57.0,43.2,29.99,SSW,202,9.0,20.0,60,0.00,,,0.00,Weather View 32 v70,2013-07-27 02:25:00,
2013-07-26 19:30:00,57.0,43.7,30.00,SSW,202,8.0,20.0,61,0.00,,,0.00,Weather View 32 v70,2013-07-27 02:30:00,
2013-07-26 19:35:00,57.0,43.7,30.00,SSW,202,2.0,20.0,61,0.00,,,0.00,Weather View 32 v70,2013-07-27 02:35:00,
2013-07-26 19:40:00,57.0,15.1,30.01,SSW,202,9.0,20.0,19,0.00,,,0.00,Weather View 32 v70,2013-07-27 02:40:00,
2013-07-26 19:45:00,57.0,43.7,30.01,SSW,202,0.0,20.0,61,0.00,,,0.00,Weather View 32 v70,2013-07-27 02:45:00,
2013-07-26 19:50:00,57.0,44.1,30.00,SSW,202,3.0,20.0,62,0.00,,,0.00,Weather View 32 v70,2013-07-27 02:50:00,
2013-07-26 19:56:00,57.0,44.5,30.01,SSW,202,0.0,19.0,63,0.00,,,0.00,Weather View 32 v70,2013-07-27 02:56:00,
2013-07-26 20:01:00,57.0,36.4,30.00,SSW,202,6.0,19.0,46,0.00,,,0.00,Weather View 32 v70,2013-07-27 03:01:00,
2013-07-26 20:06:00,56.0,43.6,30.00,SSW,202,0.0,16.0,63,0.00,,,0.00,Weather View 32 v70,2013-07-27 03:06:00,
2013-07-26 20:11:00,56.0,44.0,30.01,SSW,202,6.0,15.0,64,0.00,,,0.00,Weather View 32 v70,2013-07-27 03:11:00,
2013-07-26 20:16:00,56.0,44.4,30.01,SSW,202,0.0,15.0,65,0.00,,,0.00,Weather View 32 v70,2013-07-27 03:16:00,
2013-07-26 20:18:00,56.0,44.4,30.01,SSW,202,0.0,15.0,65,0.00,,,0.00,Weather View 32 v70,2013-07-27 03:18:00,
2013-07-26 20:26:00,56.0,44.8,30.01,SSW,202,0.0,15.0,66,0.00,,,0.00,Weather View 32 v70,2013-07-27 03:26:00,
2013-07-26 20:31:00,56.0,45.2,30.01,SSW,202,0.0,15.0,67,0.00,,,0.00,Weather View 32 v70,2013-07-27 03:31:00,
2013-07-26 20:36:00,56.0,45.6,30.01,SSW,202,3.0,15.0,68,0.00,,,0.00,Weather View 32 v70,2013-07-27 03:36:00,
2013-07-26 20:41:00,56.0,45.6,30.01,SSW,202,5.0,15.0,68,0.00,,,0.00,Weather View 32 v70,2013-07-27 03:41:00,
2013-07-26 20:46:00,56.0,46.0,30.01,SSW,202,0.0,15.0,69,0.00,,,0.00,Weather View 32 v70,2013-07-27 03:46:00,
2013-07-26 20:51:00,56.0,46.3,30.01,SSW,202,5.0,15.0,70,0.00,,,0.00,Weather View 32 v70,2013-07-27 03:51:00,
2013-07-26 20:56:00,55.0,45.8,30.01,SSW,202,0.0,13.0,71,0.00,,,0.00,Weather View 32 v70,2013-07-27 03:56:00,
2013-07-26 21:01:00,55.0,45.8,30.01,SSW,202,0.0,11.0,71,0.00,,,0.00,Weather View 32 v70,2013-07-27 04:01:00,
2013-07-26 21:06:00,55.0,46.1,30.01,SSW,202,0.0,11.0,72,0.00,,,0.00,Weather View 32 v70,2013-07-27 04:06:00,
2013-07-26 21:11:00,56.0,47.4,30.01,SSW,202,4.0,11.0,73,0.00,,,0.00,Weather View 32 v70,2013-07-27 04:11:00,
2013-07-26 21:16:00,55.0,46.5,30.01,SSW,202,0.0,11.0,73,0.00,,,0.00,Weather View 32 v70,2013-07-27 04:16:00,
2013-07-26 21:21:00,55.0,46.8,30.02,SSW,202,0.0,11.0,74,0.00,,,0.00,Weather View 32 v70,2013-07-27 04:21:00,
2013-07-26 21:26:00,55.0,46.8,30.03,SSW,202,0.0,11.0,74,0.00,,,0.00,Weather View 32 v70,2013-07-27 04:26:00,
2013-07-26 21:31:00,55.0,47.2,30.03,SSW,202,0.0,11.0,75,0.00,,,0.00,Weather View 32 v70,2013-07-27 04:31:00,
2013-07-26 21:36:00,55.0,47.6,30.03,SSW,202,5.0,11.0,76,0.00,,,0.00,Weather View 32 v70,2013-07-27 04:36:00,
2013-07-26 21:41:00,55.0,47.6,30.03,SSW,202,1.0,10.0,76,0.00,,,0.00,Weather View 32 v70,2013-07-27 04:41:00,
2013-07-26 21:46:00,55.0,47.9,30.03,SSW,202,0.0,10.0,77,0.00,,,0.00,Weather View 32 v70,2013-07-27 04:46:00,
2013-07-26 21:51:00,55.0,47.9,30.03,SSW,202,2.0,11.0,77,0.00,,,0.00,Weather View 32 v70,2013-07-27 04:51:00,
2013-07-26 21:56:00,55.0,48.3,30.03,SSW,202,1.0,11.0,78,0.00,,,0.00,Weather View 32 v70,2013-07-27 04:56:00,
2013-07-26 22:01:00,55.0,48.3,30.03,SSW,202,1.0,12.0,78,0.00,,,0.00,Weather View 32 v70,2013-07-27 05:01:00,
2013-07-26 22:06:00,55.0,48.3,30.03,SSW,202,3.0,12.0,78,0.00,,,0.00,Weather View 32 v70,2013-07-27 05:06:00,
2013-07-26 22:11:00,55.0,48.3,30.03,SSW,202,7.0,12.0,78,0.00,,,0.00,Weather View 32 v70,2013-07-27 05:11:00,
2013-07-26 22:16:00,55.0,48.3,30.03,SSW,202,7.0,12.0,78,0.00,,,0.00,Weather View 32 v70,2013-07-27 05:16:00,
2013-07-26 22:18:00,55.0,48.3,30.03,SSW,202,7.0,12.0,78,0.00,,,0.00,Weather View 32 v70,2013-07-27 05:18:00,
2013-07-26 22:26:00,55.0,47.9,30.03,SSW,202,1.0,12.0,77,0.00,,,0.00,Weather View 32 v70,2013-07-27 05:26:00,
2013-07-26 22:31:00,55.0,47.6,30.03,SSW,202,2.0,14.0,76,0.00,,,0.00,Weather View 32 v70,2013-07-27 05:31:00,
2013-07-26 22:46:00,54.0,44.8,30.03,SSW,202,2.0,14.0,71,0.00,,,0.00,Weather View 32 v70,2013-07-27 05:46:00,
2013-07-26 22:51:00,55.0,45.0,30.03,SSW,202,2.0,14.0,69,0.00,,,0.00,Weather View 32 v70,2013-07-27 05:51:00,
2013-07-26 22:56:00,55.0,45.0,30.03,SSW,202,3.0,14.0,69,0.00,,,0.00,Weather View 32 v70,2013-07-27 05:56:00,
2013-07-26 23:01:00,55.0,45.0,30.03,SSW,202,2.0,14.0,69,0.00,,,0.00,Weather View 32 v70,2013-07-27 06:01:00,
2013-07-26 23:06:00,54.0,44.0,30.03,SSW,202,4.0,14.0,69,0.00,,,0.00,Weather View 32 v70,2013-07-27 06:06:00,
2013-07-26 23:11:00,55.0,45.0,30.03,SSW,202,1.0,14.0,69,0.00,,,0.00,Weather View 32 v70,2013-07-27 06:11:00,
2013-07-26 23:16:00,54.0,44.0,30.03,SSW,202,2.0,14.0,69,0.00,,,0.00,Weather View 32 v70,2013-07-27 06:16:00,
2013-07-26 23:19:00,54.0,44.0,30.03,SSW,202,2.0,14.0,69,0.00,,,0.00,Weather View 32 v70,2013-07-27 06:19:00,
2013-07-26 23:21:00,54.0,44.0,30.03,SSW,202,6.0,14.0,69,0.00,,,0.00,Weather View 32 v70,2013-07-27 06:21:00,
2013-07-26 23:26:00,54.0,44.0,30.04,SSW,202,2.0,14.0,69,0.00,,,0.00,Weather View 32 v70,2013-07-27 06:26:00,
2013-07-26 23:31:00,54.0,44.0,30.04,SSW,202,9.0,14.0,69,0.00,,,0.00,Weather View 32 v70,2013-07-27 06:31:00,
2013-07-26 23:41:00,54.0,44.0,30.03,SSW,202,2.0,13.0,69,0.00,,,0.00,Weather View 32 v70,2013-07-27 06:41:00,
2013-07-26 23:46:00,54.0,44.0,30.03,SSW,202,7.0,13.0,69,0.00,,,0.00,Weather View 32 v70,2013-07-27 06:46:00,
2013-07-26 23:51:00,54.0,44.0,30.03,SSW,202,3.0,13.0,69,0.00,,,0.00,Weather View 32 v70,2013-07-27 06:51:00,
2013-07-26 23:56:00,54.0,44.0,30.03,SSW,202,3.0,13.0,69,0.00,,,0.00,Weather View 32 v70,2013-07-27 06:56:00,